Weather reports worldwide

Advertisment
Guernsey, United Kingdom (3894): temperature & dewpoint: 06.11.2019 05:00:00 - 12.11.2019 05:00:00 (GMT)Guernsey, United Kingdom (3894): temperature -20cm & temperature -100cm: 06.11.2019 05:00:00 - 12.11.2019 05:00:00 (GMT)Guernsey, United Kingdom (3894): wind speed & gusts: 06.11.2019 05:00:00 - 12.11.2019 05:00:00 (GMT)Guernsey, United Kingdom (3894): wind direction: 06.11.2019 05:00:00 - 12.11.2019 05:00:00 (GMT)Guernsey, United Kingdom (3894): reduced air pressure: 06.11.2019 05:00:00 - 12.11.2019 05:00:00 (GMT)Guernsey, United Kingdom (3894): visibility: 06.11.2019 05:00:00 - 12.11.2019 05:00:00 (GMT)Guernsey, United Kingdom (3894): precipitation: 06.11.2019 05:00:00 - 12.11.2019 05:00:00 (GMT)
Date & Time tt [°C] td [°C] tt -20cm [°C] tt -100cm [°C] ff [km/h] ff [kn] fx [km/h] fx [kn] dd ppp [hPa] vv [km] rr [mm]
12.11.2019 05:00:00 8,0 2,5 - - 29 16 57 31 WNW 1005,5 10 -
12.11.2019 04:00:00 8,7 2,3 - - 35 19 52 28 WNW 1005,4 10 -
12.11.2019 03:00:00 8,9 2,6 - - 24 13 70 38 WNW 1005,6 10 -
12.11.2019 02:00:00 9,2 2,2 - - 29 16 52 28 WNW 1005,8 10 -
12.11.2019 01:00:00 8,4 2,2 - - 29 16 57 31 WNW 1006,2 10 -
12.11.2019 00:00:00 8,2 3,6 - - 34 18 55 30 WNW 1006,3 10 -
11.11.2019 23:00:00 9,3 3,5 - - 37 20 55 30 WNW 1006,4 10 -
11.11.2019 22:00:00 9,6 3,0 - - 37 20 57 31 WNW 1006,7 10 -
11.11.2019 21:00:00 9,6 3,8 - - 37 20 54 29 W 1007,0 20 -
11.11.2019 20:00:00 9,2 4,1 - - 37 20 55 30 WNW 1007,1 10 -
11.11.2019 19:00:00 9,0 3,7 - - 29 16 50 27 WNW 1007,8 20 -
11.11.2019 18:00:00 9,1 4,5 - - 34 18 52 28 WNW 1007,9 10 -
11.11.2019 17:00:00 8,7 3,4 - - 31 17 50 27 WNW 1008,3 10 -
11.11.2019 16:00:00 6,6 4,3 - - 35 19 67 36 WNW 1008,3 10 -
11.11.2019 15:00:00 9,5 1,8 - - 35 19 50 27 WNW 1007,7 10 -
11.11.2019 14:00:00 8,5 3,0 - - 37 20 57 31 WNW 1008,2 10 -
11.11.2019 13:00:00 9,8 4,0 - - 35 19 61 33 WNW 1007,8 10 -
11.11.2019 12:00:00 9,9 3,3 - - 39 21 59 32 WNW 1008,2 10 -
11.11.2019 11:00:00 9,6 2,7 - - 35 19 57 31 WNW 1007,9 25 -
11.11.2019 10:00:00 9,5 2,2 - - 28 15 57 31 NW 1008,0 10 -
11.11.2019 09:00:00 9,3 3,3 10,4 12,7 24 13 52 28 NW 1007,7 25 -
11.11.2019 08:00:00 8,7 4,0 - - 28 15 59 32 NW 1006,8 10 -
11.11.2019 07:00:00 9,5 3,5 - - 34 18 59 32 NW 1006,5 10 -
11.11.2019 06:00:00 9,5 3,3 - - 37 20 59 32 NW 1005,8 10 -
11.11.2019 05:00:00 10,1 8,2 - - 41 22 61 33 WSW 1004,4 10 -
11.11.2019 04:00:00 9,2 7,8 - - 37 20 52 28 WSW 1005,7 10 -
11.11.2019 03:00:00 9,6 7,7 - - 34 18 48 26 WSW 1006,9 10 -
11.11.2019 02:00:00 10,1 6,8 - - 29 16 - - SW 1008,2 10 -
11.11.2019 01:00:00 10,1 4,6 - - 31 17 - - SW 1009,2 10 -
11.11.2019 00:00:00 10,4 6,5 - - 22 12 55 30 SW 1010,7 10 -
10.11.2019 23:00:00 9,4 5,5 - - 13 7 - - S 1011,5 10 -
10.11.2019 22:00:00 8,9 4,6 - - 9 5 - - S 1012,7 10 -
10.11.2019 21:00:00 8,8 6,0 - - 13 7 - - SSE 1012,8 10 -
10.11.2019 20:00:00 9,4 5,2 - - 13 7 - - ESE 1011,8 10 -
10.11.2019 19:00:00 8,3 5,2 - - 11 6 - - ESE 1012,4 10 -
10.11.2019 18:00:00 8,3 4,5 - - 8 4 - - E 1014,0 10 -
10.11.2019 17:00:00 8,1 5,7 - - 8 4 - - ENE 1013,8 10 -
10.11.2019 16:00:00 9,6 6,5 - - 8 4 - - N 1014,0 10 -
10.11.2019 15:00:00 10,5 6,9 - - 11 6 - - N 1013,2 40 -
10.11.2019 14:00:00 10,4 5,2 - - 11 6 - - NE 1012,8 10 -
10.11.2019 13:00:00 10,7 5,1 - - 15 8 - - ENE 1012,2 10 -
10.11.2019 12:00:00 10,5 6,5 - - 21 11 - - E 1011,7 10 -
10.11.2019 11:00:00 9,5 8,0 - - 15 8 - - ENE 1011,4 25 -
10.11.2019 10:00:00 9,9 4,9 - - 13 7 - - NNE 1010,2 10 -
10.11.2019 09:00:00 8,4 5,2 10,2 13,0 11 6 - - N 1009,2 10 -
10.11.2019 08:00:00 8,0 4,7 - - 16 9 - - N 1008,2 10 -
10.11.2019 07:00:00 7,8 4,3 - - 21 11 - - N 1007,0 45 -
10.11.2019 06:00:00 7,8 3,3 - - 26 14 52 28 NNW 1006,0 10 -
10.11.2019 05:00:00 7,8 5,1 - - 35 19 54 29 N 1005,0 10 -
10.11.2019 04:00:00 8,8 4,6 - - 29 16 52 28 NW 1004,1 10 -
10.11.2019 03:00:00 9,1 5,1 - - 31 17 55 30 NW 1004,0 10 -
10.11.2019 02:00:00 7,6 5,2 - - 29 16 57 31 NW 1004,5 10 -
10.11.2019 01:00:00 9,3 4,0 - - 34 18 61 33 NW 1004,6 10 -
10.11.2019 00:00:00 9,7 2,8 - - 37 20 57 31 WNW 1004,7 10 -
09.11.2019 23:00:00 9,8 3,6 - - 31 17 59 32 NW 1004,6 10 -
09.11.2019 22:00:00 9,8 3,2 - - 37 20 63 34 NW 1004,6 10 -
09.11.2019 21:00:00 9,6 3,5 - - 35 19 59 32 NW 1004,6 10 -
09.11.2019 20:00:00 9,2 3,2 - - 31 17 59 32 NW 1004,3 10 -
09.11.2019 19:00:00 9,3 3,4 - - 35 19 57 31 NW 1003,6 10 -
09.11.2019 18:00:00 8,9 4,4 - - 34 18 57 31 NW 1003,3 10 -
09.11.2019 17:00:00 8,8 5,3 - - 31 17 48 26 WNW 1002,7 10 -
09.11.2019 16:00:00 9,0 5,3 - - 24 13 - - WNW 1002,2 10 -
09.11.2019 15:00:00 10,1 5,5 - - 24 13 - - WNW 1002,1 10 -
09.11.2019 14:00:00 8,8 7,0 - - 16 9 - - WNW 1002,6 10 -
09.11.2019 13:00:00 8,9 8,1 - - 15 8 - - W 1003,4 10 -
09.11.2019 12:00:00 8,5 7,2 - - 41 22 59 32 WSW 1004,2 7 -
09.11.2019 11:00:00 9,2 8,0 - - 37 20 52 28 SSW 1004,9 8 -
09.11.2019 10:00:00 9,4 7,5 - - 31 17 46 25 SSW 1006,6 5 -
09.11.2019 09:00:00 9,9 5,7 10,5 13,2 28 15 - - SSW 1007,5 10 -
09.11.2019 08:00:00 9,5 5,3 - - 28 15 - - SSW 1008,7 10 -
09.11.2019 07:00:00 10,0 4,6 - - 24 13 - - SSW 1009,6 10 -
09.11.2019 06:00:00 8,4 3,2 - - 13 7 - - SW 1010,3 10 0,0
09.11.2019 05:00:00 6,2 3,0 - - 11 6 - - WSW 1011,6 45 -
09.11.2019 04:00:00 6,6 3,0 - - 16 9 - - WSW 1012,2 10 -
09.11.2019 03:00:00 5,9 2,9 - - 13 7 - - WSW 1012,9 10 -
09.11.2019 02:00:00 6,6 2,5 - - 4 2 - - - 1013,6 10 -
09.11.2019 01:00:00 6,3 2,3 - - 5 3 - - ENE 1013,8 45 -
09.11.2019 00:00:00 6,5 2,7 - - 4 2 - - - 1014,0 10 0,0
08.11.2019 23:00:00 6,5 2,7 - - 5 3 - - NE 1013,6 45 -
08.11.2019 22:00:00 7,0 2,6 - - 9 5 - - N 1014,1 10 -
08.11.2019 21:00:00 8,3 3,1 - - 9 5 - - N 1013,8 10 -
08.11.2019 20:00:00 8,3 2,6 - - 15 8 - - N 1013,4 50 -
08.11.2019 19:00:00 8,7 3,0 - - 21 11 - - NNW 1012,9 10 -
08.11.2019 18:00:00 9,2 3,7 - - 22 12 - - N 1012,4 10 -
08.11.2019 17:00:00 8,9 4,7 - - 22 12 - - N 1011,6 10 -
08.11.2019 16:00:00 9,1 4,7 - - 21 11 - - N 1010,5 10 -
08.11.2019 15:00:00 9,3 4,7 - - 21 11 - - N 1009,6 50 -
08.11.2019 14:00:00 10,1 5,0 - - 21 11 - - N 1008,8 50 -
08.11.2019 13:00:00 9,9 4,8 - - 18 10 - - N 1008,3 10 -
08.11.2019 12:00:00 9,7 5,8 - - 18 10 - - N 1007,8 10 -
08.11.2019 11:00:00 9,2 5,4 - - 16 9 - - N 1007,4 10 -
08.11.2019 10:00:00 8,9 5,0 - - 18 10 - - N 1006,4 10 -
08.11.2019 09:00:00 8,5 6,4 10,9 13,2 11 6 - - NNE 1005,3 10 -
08.11.2019 08:00:00 7,9 5,9 - - 11 6 - - NNW 1004,2 10 -
08.11.2019 07:00:00 8,2 6,0 - - 18 10 - - N 1002,9 20 -
08.11.2019 06:00:00 6,7 5,4 - - 5 3 - - E 1002,0 10 -
08.11.2019 05:00:00 6,5 5,1 - - 8 4 - - ENE 1001,0 10 -
08.11.2019 04:00:00 6,1 5,0 - - 4 2 - - - 1000,0 10 -
08.11.2019 03:00:00 6,2 5,4 - - 8 4 - - N 999,3 10 -
08.11.2019 02:00:00 6,4 5,3 - - 11 6 - - N 998,7 8 -
08.11.2019 01:00:00 6,3 5,3 - - 8 4 - - N 998,0 12 -
08.11.2019 00:00:00 7,5 5,5 - - 8 4 - - ENE 997,4 10 -
07.11.2019 23:00:00 8,0 4,2 - - 8 4 - - SSE 996,5 10 -
07.11.2019 22:00:00 7,6 4,7 - - 9 5 - - SSE 996,2 10 -
07.11.2019 21:00:00 8,6 4,9 - - 18 10 - - SSE 995,9 30 -
07.11.2019 20:00:00 8,6 4,1 - - 15 8 - - S 995,3 10 -
07.11.2019 19:00:00 8,8 3,4 - - 18 10 - - SSW 995,4 45 -
07.11.2019 18:00:00 8,8 3,8 - - 24 13 - - S 995,4 45 -
07.11.2019 17:00:00 8,8 3,6 - - 24 13 - - SSW 995,1 10 -
07.11.2019 16:00:00 9,3 3,5 - - 24 13 46 25 SW 995,2 10 -
07.11.2019 15:00:00 8,2 3,0 - - 26 14 55 30 WSW 995,5 10 -
07.11.2019 14:00:00 9,0 4,3 - - 26 14 50 27 SW 995,6 10 -
07.11.2019 13:00:00 8,9 2,9 - - 35 19 55 30 WSW 996,0 10 -
07.11.2019 12:00:00 9,8 4,1 - - 26 14 52 28 WSW 996,1 20 -
07.11.2019 11:00:00 10,2 2,7 - - 34 18 48 26 WSW 996,4 25 -
07.11.2019 10:00:00 8,2 3,8 - - 29 16 46 25 W 996,6 10 -
07.11.2019 09:00:00 9,2 3,4 11,7 13,4 29 16 48 26 W 996,3 10 -
07.11.2019 08:00:00 8,9 1,7 - - 35 19 50 27 W 996,1 10 -
07.11.2019 07:00:00 8,8 2,8 - - 34 18 50 27 W 995,6 10 -
07.11.2019 06:00:00 8,9 2,7 - - 31 17 61 33 WNW 995,4 10 -
07.11.2019 05:00:00 8,8 3,5 - - 34 18 52 28 WNW 995,7 10 -
07.11.2019 04:00:00 8,9 3,5 - - 31 17 54 29 WNW 995,3 45 -
07.11.2019 03:00:00 8,4 3,5 - - 26 14 54 29 WNW 995,5 10 -
07.11.2019 02:00:00 9,1 4,1 - - 35 19 55 30 WNW 995,6 10 -
07.11.2019 01:00:00 9,6 5,0 - - 34 18 55 30 WNW 995,5 10 -
07.11.2019 00:00:00 9,9 6,3 - - 28 15 54 29 NW 995,5 10 -
06.11.2019 23:00:00 10,0 9,1 - - 26 14 46 25 W 995,3 10 -
06.11.2019 22:00:00 10,7 8,0 - - 21 11 48 26 SW 995,7 10 -
06.11.2019 21:00:00 10,7 10,4 - - 26 14 - - SSW 997,3 9 -
06.11.2019 20:00:00 10,4 9,7 - - 26 14 - - S 998,2 8 -
06.11.2019 19:00:00 10,3 8,9 - - 26 14 - - SSW 999,5 10 -
06.11.2019 18:00:00 10,3 8,7 - - 21 11 - - SSW 1000,6 10 -
06.11.2019 17:00:00 10,6 7,8 - - 21 11 - - SW 1001,8 10 -
06.11.2019 16:00:00 10,0 8,4 - - 16 9 - - SW 1002,6 10 -
06.11.2019 15:00:00 10,4 7,4 - - 21 11 - - WSW 1003,3 10 -
06.11.2019 14:00:00 10,7 7,8 - - 15 8 - - WSW 1004,3 45 -
06.11.2019 13:00:00 9,9 7,5 - - 13 7 - - SW 1005,3 10 -
06.11.2019 12:00:00 11,6 7,0 - - 13 7 - - W 1005,9 10 -
06.11.2019 11:00:00 11,5 6,5 - - 15 8 - - W 1006,6 10 -
06.11.2019 10:00:00 11,5 7,0 - - 15 8 - - W 1007,0 10 -
06.11.2019 09:00:00 11,7 7,5 11,9 13,5 9 5 - - NW 1007,2 10 -
06.11.2019 08:00:00 10,6 7,1 - - 9 5 - - WNW 1007,3 10 -
06.11.2019 07:00:00 10,3 7,5 - - 9 5 - - NW 1007,0 10 -
06.11.2019 06:00:00 10,4 6,9 - - 11 6 - - NW 1007,0 10 -
06.11.2019 05:00:00 10,5 6,6 - - 11 6 - - NW 1007,5 10 -

tt = temperature
td = dewpoint
tt -20cm = temperature -20cm
tt -100cm = temperature -100cm
ff = wind speed
fx = gusts
dd = wind direction
ppp = reduced air pressure
vv = visibility
rr = precipitation

Next stations